Commit Graph

54 Commits

Author SHA1 Message Date
56622e8c9c UI changes : GWM 2024-11-22 14:39:35 +05:30
vadivel J
d3fdd57fda changes in gas stock module -vadivel J 2024-11-13 10:13:55 +05:30
vadivel J
b193589451 changes in stock module -vadivel j 2024-11-11 18:00:52 +05:30
0a7eed3483 Merge conflit : GWM 2024-11-08 11:49:14 +05:30
dd5f71886b Power module : GWM 2024-11-08 11:45:12 +05:30
vadivel J
590e2fd1ec resin stock changes -vadivel J 2024-11-08 11:10:04 +05:30
vadivel J
c6821967d6 finished dust and rough module 2024-11-07 17:25:48 +05:30
302c4fdc61 GWM : ordering issue 2024-10-28 13:56:24 +05:30
1f3c50473d gwm 2024-10-25 14:53:04 +05:30
0b48980548 Merge branch 'new_theme' of bitbucket.org:venbainformationtechnology/ria into new_theme 2024-10-25 09:09:09 +05:30
15d09e5c7b Code merge : GWM 2024-10-25 09:09:01 +05:30
vadivelJ96
0eb98086b9 Merge branch 'new_theme' of bitbucket.org:venbainformationtechnology/ria into new_theme 2024-10-25 08:17:50 +05:30
vadivelJ96
a15bf13d56 25/10/2024 vadivel J 2024-10-25 08:17:38 +05:30
198ab86912 Auditor login Changes : GWM 2024-10-24 14:25:41 +05:30
0fc7f048b1 Auditor login changes : GWM 2024-10-24 12:02:46 +05:30
vadivel J
877db92512 started bag stock sub module 2024-10-22 17:34:34 +05:30
vadivel J
13b851d4be incoming silica sand details 70% comp 2024-10-21 17:52:38 +05:30
vadivel J
d14dee5b87 working on incoming silica module -vadivel J 2024-10-19 14:30:18 +05:30
vadivelJ96
c0b59d7836 stock module dev 17/10 -vadivel J 2024-10-17 23:00:15 +05:30
vadivelJ96
894c5083c9 added fields in stock module - vadivel J 2024-10-17 14:39:48 +05:30
75b19a7323 Stock module : GWM 2024-10-17 09:57:40 +05:30
001f488e66 merge : GWM 2024-10-16 16:58:27 +05:30
vadivel J
36c533a755 updated color -vadivel J 2024-10-10 15:24:21 +05:30
vadivel J
22de98c308 client change req in emp module -vadivelJ 2024-10-09 11:24:31 +05:30
vadivel J
04093c9342 working on stock module 2024-10-08 17:30:53 +05:30
vadivel J
5315a6cb11 development in ria factory module -vadivel J 2024-10-03 18:01:09 +05:30
aadhavan valli
c8f7fbe528 CHANGE_SANJEEV_ISSUE_ISSUE_CLEAR2 2024-09-26 17:27:12 +05:30
aadhavan valli
145af91046 CHANGE_SANJEEV_ISSUE_AND_LISTING_LOADER_ISSUE_CLEAR 2024-09-25 17:45:32 +05:30
aadhavan valli
8b720318c1 CHANGE_SANJEEV_ISSUE_TRACK_ISSUE_CLEAR 2024-09-24 17:06:55 +05:30
Smart
452e0746b5 HR issue : GWM 2024-09-18 15:01:43 +05:30
aadhavan valli
4fd1e396fc CHANGE_TRACKER_ISSUE_5 2024-09-17 18:29:16 +05:30
aadhavan valli
deb4b84350 CHANGE_TRACKER_ISSUE 2024-09-12 12:25:06 +05:30
Smart
f104476e1a Mergee : GWM 2024-09-11 08:54:25 +05:30
aadhavan valli
2a85598895 CHANGE_MASTER_ISSUE_CLEAR_EXPENCE_CREATE_VIEW_CHANGE 2024-09-06 11:55:09 +05:30
aadhavan valli
660536d515 CHANGE_ISSUE_CLEAR 2024-09-05 09:04:36 +05:30
bitbucket
af6d672733 CHANGE_ in loan module : GWM 2024-09-03 16:34:58 +05:30
bitbucket
0cb9a8ffe4 HR module : GWM 2024-09-02 15:55:28 +05:30
bitbucket
70ad55f089 Merge : GWM 2024-09-02 08:30:04 +05:30
bitbucket
8a18f5d197 Code merge : GWM 2024-08-31 11:22:42 +05:30
bitbucket
fffc1f0b26 GWM : header scroller code 2024-08-30 09:26:33 +05:30
bitbucket
bbfd1b6e82 GWM : header scroller code 2024-08-30 09:23:33 +05:30
aadhavan valli
f5ff2a009a CHANGE_PURCHASE_ORDER_EMERGE_PEND_HR 2024-08-30 09:07:49 +05:30
aadhavan valli
de44e11467 CHANGE_INWARD_RIASE_CONFLICT_COMMIT 2024-08-29 08:52:41 +05:30
aadhavan valli
598148a969 CHANGE_INWARD_RIASE 2024-08-29 08:51:04 +05:30
bitbucket
dd5c0ea468 Emp module files : GWM 2024-08-29 08:34:40 +05:30
aadhavan valli
96ff383906 ADD_NEW_NONE_IGR_EXPENSE 2024-08-27 11:31:42 +05:30
aadhavan valli
be3eeb3b09 CHANGE_MASTER_ALL_FORM_CONVERT_TO_MINTON 2024-08-23 18:12:07 +05:30
aadhavan valli
73de4cf9ad CHANGE_DATE_RANGE_LIST 2024-08-22 15:04:44 +05:30
f72930de0a requisition form design 2024-08-21 11:36:57 +00:00
cd72b156e2 transporter master 2024-08-21 03:51:35 +00:00